TimeCST,TemperatureF,Dew PointF,Humidity,Sea Level PressureIn,VisibilityMPH,Wind Direction,Wind SpeedMPH,Gust SpeedMPH,PrecipitationIn,Events,Conditions,WindDirDegrees,DateUTC
12:15 AM,24.6,17.1,73,29.49,10.0,South,15.0,-,N/A,,Overcast,170,2014-01-04 06:15:00
12:35 AM,24.6,17.4,74,29.48,7.0,South,15.0,20.7,N/A,,Overcast,170,2014-01-04 06:35:00
12:55 AM,24.6,18.1,76,29.47,4.0,South,15.0,23.0,N/A,Snow,Light Snow,180,2014-01-04 06:55:00
1:15 AM,24.8,19.0,79,29.47,2.5,South,12.7,-,N/A,Snow,Light Snow,180,2014-01-04 07:15:00
1:35 AM,24.6,20.3,84,29.46,2.0,South,11.5,-,N/A,Snow,Light Snow,170,2014-01-04 07:35:00
1:55 AM,24.6,21.2,87,29.45,2.5,SSE,12.7,-,N/A,Snow,Light Snow,160,2014-01-04 07:55:00
2:15 AM,25.3,21.9,87,29.46,5.0,South,8.1,18.4,N/A,Snow,Light Snow,180,2014-01-04 08:15:00
2:35 AM,25.7,22.3,87,29.47,7.0,SSW,5.8,-,N/A,Snow,Light Snow,200,2014-01-04 08:35:00
2:55 AM,26.6,22.8,86,29.46,10.0,South,9.2,-,N/A,,Overcast,180,2014-01-04 08:55:00
3:15 AM,27.3,23.4,85,29.47,10.0,SSW,10.4,-,N/A,Snow,Light Snow,200,2014-01-04 09:15:00
3:35 AM,27.9,23.9,85,29.48,7.0,SSW,15.0,-,N/A,Snow,Light Snow,200,2014-01-04 09:35:00
3:55 AM,28.8,24.3,83,29.47,10.0,SSW,10.4,17.3,N/A,,Overcast,210,2014-01-04 09:55:00
4:15 AM,29.3,24.6,83,29.47,10.0,SSW,10.4,-,N/A,,Overcast,210,2014-01-04 10:15:00
4:35 AM,30.0,25.3,83,29.47,10.0,SSW,9.2,-,N/A,,Overcast,210,2014-01-04 10:35:00
4:55 AM,30.6,25.7,82,29.48,10.0,SSW,10.4,-,N/A,,Overcast,210,2014-01-04 10:55:00
5:15 AM,30.7,25.7,82,29.50,10.0,SW,9.2,-,N/A,,Overcast,220,2014-01-04 11:15:00
5:35 AM,31.1,26.6,83,29.51,10.0,SW,8.1,-,N/A,,Overcast,220,2014-01-04 11:35:00
5:55 AM,31.8,27.5,84,29.53,7.0,SW,11.5,-,N/A,,Overcast,230,2014-01-04 11:55:00
6:15 AM,32.0,28.4,87,29.54,7.0,WSW,9.2,-,N/A,,Overcast,250,2014-01-04 12:15:00
6:35 AM,32.0,29.1,89,29.55,10.0,West,12.7,-,N/A,,Overcast,280,2014-01-04 12:35:00
6:55 AM,32.0,27.1,82,29.59,7.0,WNW,18.4,25.3,N/A,,Overcast,290,2014-01-04 12:55:00
7:15 AM,30.6,23.9,76,29.60,5.0,NW,21.9,26.5,N/A,,Haze,310,2014-01-04 13:15:00
7:35 AM,29.3,22.5,76,29.63,7.0,NW,23.0,-,N/A,,Overcast,310,2014-01-04 13:35:00
7:55 AM,27.9,21.2,76,29.67,5.0,NW,15.0,29.9,N/A,,Haze,310,2014-01-04 13:55:00
8:15 AM,27.1,20.7,77,29.68,10.0,WNW,18.4,-,N/A,,Overcast,300,2014-01-04 14:15:00
8:35 AM,25.9,18.7,74,29.71,5.0,WNW,17.3,26.5,N/A,,Haze,300,2014-01-04 14:35:00
8:55 AM,24.8,17.1,72,29.72,5.0,WNW,18.4,25.3,N/A,,Haze,300,2014-01-04 14:55:00
9:15 AM,23.7,15.6,71,29.77,7.0,WNW,13.8,24.2,N/A,,Overcast,290,2014-01-04 15:15:00
9:35 AM,22.6,14.4,71,29.78,3.0,NW,18.4,27.6,N/A,,Haze,310,2014-01-04 15:35:00
9:55 AM,20.8,12.0,69,29.80,3.0,WNW,15.0,-,N/A,,Haze,300,2014-01-04 15:55:00
10:15 AM,19.4,9.3,65,29.83,10.0,WNW,13.8,-,N/A,,Scattered Clouds,300,2014-01-04 16:15:00
10:35 AM,17.6,7.3,64,29.83,3.0,NW,21.9,27.6,N/A,,Haze,310,2014-01-04 16:35:00
10:55 AM,16.9,6.8,65,29.86,5.0,NW,19.6,24.2,N/A,,Haze,310,2014-01-04 16:55:00
11:15 AM,16.3,5.7,63,29.88,10.0,WNW,15.0,21.9,N/A,,Clear,300,2014-01-04 17:15:00
11:35 AM,16.7,5.7,62,29.88,10.0,NW,16.1,-,N/A,,Clear,310,2014-01-04 17:35:00
11:55 AM,17.2,5.9,61,29.88,10.0,NW,17.3,23.0,N/A,,Clear,320,2014-01-04 17:55:00
12:15 PM,17.1,5.9,62,29.88,10.0,NW,13.8,19.6,N/A,,Clear,320,2014-01-04 18:15:00
12:35 PM,17.4,6.1,61,29.88,10.0,NW,12.7,19.6,N/A,,Clear,320,2014-01-04 18:35:00
12:55 PM,17.6,5.2,58,29.88,10.0,WNW,15.0,18.4,N/A,,Clear,290,2014-01-04 18:55:00
1:15 PM,17.6,5.0,58,29.89,10.0,WNW,12.7,-,N/A,,Clear,290,2014-01-04 19:15:00
1:35 PM,17.6,4.8,57,29.89,10.0,WNW,15.0,18.4,N/A,,Clear,300,2014-01-04 19:35:00
1:55 PM,17.6,4.6,57,29.90,10.0,WNW,11.5,-,N/A,,Clear,290,2014-01-04 19:55:00
2:15 PM,17.6,4.6,57,29.93,10.0,WNW,15.0,-,N/A,,Clear,290,2014-01-04 20:15:00
2:35 PM,17.1,3.9,56,29.94,10.0,WNW,15.0,-,N/A,,Clear,300,2014-01-04 20:35:00
2:55 PM,17.1,3.4,55,29.95,10.0,WNW,10.4,19.6,N/A,,Clear,290,2014-01-04 20:55:00
3:15 PM,16.7,3.4,56,29.97,10.0,WNW,9.2,-,N/A,,Clear,290,2014-01-04 21:15:00
3:35 PM,16.5,3.0,55,29.99,10.0,West,8.1,-,N/A,,Clear,280,2014-01-04 21:35:00
3:55 PM,16.0,3.7,59,30.01,10.0,West,17.3,21.9,N/A,,Clear,280,2014-01-04 21:55:00
4:15 PM,14.7,3.2,60,30.02,10.0,West,13.8,18.4,N/A,,Clear,280,2014-01-04 22:15:00
4:35 PM,13.8,2.1,60,30.03,10.0,West,13.8,-,N/A,,Clear,280,2014-01-04 22:35:00
4:55 PM,12.9,1.8,61,30.04,10.0,WNW,12.7,-,N/A,,Clear,290,2014-01-04 22:55:00
5:15 PM,12.2,0.7,60,30.04,10.0,WNW,10.4,-,N/A,,Clear,300,2014-01-04 23:15:00
5:35 PM,11.8,-0.0,59,30.05,10.0,WNW,10.4,-,N/A,,Clear,300,2014-01-04 23:35:00
5:55 PM,11.5,-0.8,58,30.06,10.0,WNW,11.5,-,N/A,,Clear,300,2014-01-04 23:55:00
6:15 PM,11.3,-1.5,57,30.06,10.0,WNW,10.4,-,N/A,,Clear,300,2014-01-05 00:15:00
6:35 PM,10.9,-1.7,57,30.07,10.0,WNW,6.9,-,N/A,,Clear,300,2014-01-05 00:35:00
6:55 PM,9.5,-1.8,60,30.09,10.0,West,5.8,-,N/A,,Clear,280,2014-01-05 00:55:00
7:15 PM,8.6,-2.0,62,30.11,10.0,West,5.8,-,N/A,,Clear,270,2014-01-05 01:15:00
7:35 PM,7.7,-2.0,65,30.11,10.0,West,8.1,-,N/A,,Clear,280,2014-01-05 01:35:00
7:55 PM,7.5,-1.8,66,30.11,10.0,West,8.1,-,N/A,,Clear,270,2014-01-05 01:55:00
8:15 PM,7.3,-2.2,65,30.12,10.0,West,8.1,-,N/A,,Clear,270,2014-01-05 02:15:00
8:35 PM,6.4,-2.2,68,30.13,10.0,West,9.2,-,N/A,,Clear,280,2014-01-05 02:35:00
8:55 PM,7.0,-2.4,66,30.14,10.0,West,8.1,-,N/A,,Clear,280,2014-01-05 02:55:00
9:15 PM,5.9,-3.3,66,30.14,10.0,West,6.9,-,N/A,,Clear,280,2014-01-05 03:15:00
9:35 PM,5.4,-3.5,67,30.15,10.0,West,6.9,-,N/A,,Clear,280,2014-01-05 03:35:00
9:55 PM,5.0,-3.6,68,30.15,10.0,West,6.9,-,N/A,,Clear,270,2014-01-05 03:55:00
10:15 PM,4.3,-4.0,69,30.17,10.0,WNW,8.1,-,N/A,,Clear,290,2014-01-05 04:15:00
10:35 PM,4.5,-4.5,66,30.17,10.0,WNW,8.1,-,N/A,,Clear,290,2014-01-05 04:35:00
10:55 PM,4.1,-5.4,65,30.18,10.0,WNW,8.1,-,N/A,,Clear,290,2014-01-05 04:55:00
11:15 PM,3.9,-5.8,64,30.18,10.0,WNW,9.2,-,N/A,,Clear,290,2014-01-05 05:15:00
11:35 PM,4.1,-7.6,58,30.18,10.0,WNW,10.4,-,N/A,,Clear,300,2014-01-05 05:35:00
11:55 PM,3.6,-7.8,59,30.18,10.0,WNW,12.7,-,N/A,,Clear,300,2014-01-05 05:55:00